Regional Weather Roundup
Issued by NWS Newport/Morehead, NC

Current Version | Previous Version | Text Only | Print | Product List | Glossary On
Versions: 1 2 3 4 5 6 7 8 9 10 11 12 13 14 15 16 17 18 19 20 21 22 23 24 25 26 27 28 29 30 31 32 33 34 35 36 37 38 39 40 41 42 43 44 45 46 47 48 49 50
098
ASUS42 KMHX 252325
RWRMHX
WEATHER ROUNDUP FOR EASTERN NORTH CAROLINA
NATIONAL WEATHER SERVICE NEWPORT/MOREHEAD CITY NC
700 PM EDT SAT MAR 25 2017

NOTE: "FAIR" INDICATES FEW OR NO CLOUDS BELOW 12,000 FEET
WITH NO SIGNIFICANT WEATHER AND/OR OBSTRUCTIONS TO VISIBILITY

NCZ015>017-031-032-045>047-102-103-260000-
NORTH COAST

CITY           SKY/WX    TMP DP  RH WIND       PRES   REMARKS
EDENTON        NOT AVBL
ELIZABETH CITY CLOUDY    69  52  54 S8        30.22R
KITTY HAWK     NOT AVBL
MANTEO         CLOUDY    62  52  69 SW15      30.24S

$$

NCZ045>047-081-094-103-104-260000-
CENTRAL COAST

CITY           SKY/WX    TMP DP  RH WIND       PRES   REMARKS
FRISCO         PTCLDY    65  54  67 W9        30.27S HAZE

$$

NCZ095-097-098-100-101-260000-
SOUTHERN COAST

CITY           SKY/WX    TMP DP  RH WIND       PRES   REMARKS
BEAUFORT       PTCLDY    66  55  67 SW7       30.27S
CEDAR ISLAND   NOT AVBL
JACKSONVILLE   PTCLDY    67  55  65 S8        30.25S
PINEY ISLAND   CLOUDY   N/A N/A N/A S8        30.26S
WILMINGTON     PTCLDY    68  55  63 S10       30.25S


$$

NCZ011>013-027>030-043-044-078>080-089-090>093-098-260000-
COASTAL PLAIN

CITY           SKY/WX    TMP DP  RH WIND       PRES   REMARKS
AHOSKIE        NOT AVBL
CLINTON        CLOUDY    71  54  55 S3        30.22S
ELIZABETHTOWN  PTCLDY    71  50  48 S9        30.22S
GOLDSBORO      CLOUDY    71  51  48 S8        30.20R
GREENVILLE     CLOUDY    72  50  46 SW6       30.23R
HAVELOCK       PTCLDY    68  53  58 S8G18     30.26S
KENANSVILLE    CLOUDY    70  52  52 S6        30.23S
KINSTON        CLOUDY    72  52  49 S7        30.23R
NEW BERN       PTCLDY    68  53  58 S12       30.25S
RICHLANDS      PTCLDY    67  53  61 S9        30.25R
ROCKY MOUNT    PTCLDY    71  50  47 S6        30.21R
WASHINGTON     CLOUDY    69  51  53 S8        30.23R
WHITEVILLE     PTCLDY    70  51  51 S9        30.23S

$$

AMZ130-135-150-152-154-156-158-170-250-252-270-ANZ085-086-088-633-658-670-260000-
MARINE OBSERVATIONS

STATION/POSITION TIME  TEMP    WIND        PRES    WAVE   SWELL
                       AIR SEA DIR/SP/G            HT/PER HT/PER
                 (UTC) (F)     (DEG/KT/KT) (MB)    (FT/S) (FT/S)
CHESAPEAKE LIGHT NOT AVBL
64 E VA BEACH    2250   54 49  210/ 10/ 10 1023.8    2/ 5   2/ 5
DUCK             2300   65 47  200/ 12/ 14 1023.0
2 E DUCK         2300      50                N/A     1/10
OREGON INLET     2300   60 58  200/ 13/ 15 1024.3
13E OREGON INLT  2248      50                N/A     2/ 7   2/ 7
HATTERAS CG      2300   63 58  220/  6/  9 1024.8
DIAMOND BUOY     2250   70 77  210/ 16/ 19 1024.9    3/ 5   2/ 8
CAPE LOOKOUT     2300   67     230/  4/  6 1024.9
BEAUFORT LAB     2300   63 54  200/  5/  7 1024.1
30 SE NEW RVR IN 2308   68     200/ 10/ 12 1025.0
30 SE NEW RVR IN 2313      67                N/A     3/ 7
27 SE WRIGHTSVLE 2308   65 64  240/  4/  6 1024.0
5 SE WRIGHTSVLE  2308   62 59  170/  6/  8 1024.4
225 S CAPE HAT   2250   66 73   90/  8/ 10 1025.4    5/ 8   5/ 8
41 SE CHARLESTON 2250   70 72  140/ 12/ 16 1023.1    4/ 7   3/ 7

$$




USA.gov is the U.S. government's official web portal to all federal, state and local government web resources and services.